Weather History for Clinton, AR

Change the Weather History Date:

Monday, June 18, 2012

  Actual Average (KFLP) Record (KFLP)
Temperature  
Mean Temperature 78 °F -  
Max Temperature 93 °F 83 °F 91 °F (2001)
Min Temperature 64 °F 62 °F 50 °F (1999)
Cooling Degree Days 14    
Growing Degree Days 28 (Base 50)    
Moisture  
Dew Point 65 °F    
Average Humidity 63    
Maximum Humidity 100    
Minimum Humidity 36    
Precipitation  
Precipitation 0.00 in - - ()
Sea Level Pressure  
Sea Level Pressure 29.90 in    
Wind  
Wind Speed 4 mph (SSE)    
Max Wind Speed 16 mph    
Max Gust Speed 24 mph    
Visibility 9 miles    
Events      
Averages and records for this station are not official NWS values.
T = Trace of Precipitation, MM = Missing Value Source: NWS Daily Summary

Daily Weather History Graph

Daily Weather History Graph

Search for Another Location

Airport:

Trip Planner

Search our weather history database for the weather conditions in past years. The results will help you decide how hot, cold, wet, or windy it might be!

Date:

Astronomy

Jun. 18, 2012 Rise Set
Actual Time 5:54 AM CDT 8:28 PM CDT
Civil Twilight 5:24 AM CDT 8:58 PM CDT
Nautical Twilight 4:46 AM CDT 9:35 PM CDT
Astronomical Twilight 4:05 AM CDT 10:16 PM CDT
Moon 5:07 AM CDT 7:48 PM CDT
Length of Visible Light 15h 34m
Length of Day
14h 34m
Waning Crescent, 1% of the Moon is Illuminated
Jun 18
Waning Crescent
Jun 19
New
Jun 26
First Quarter
Jul 3
Full
Jul 10
Last Quarter

Hourly Weather History & Observations

Time (CDT) Temp. Heat Index Dew Point Humidity Pressure Visibility Wind Dir Wind Speed Gust Speed Precip Events Conditions
12:15 AM 75.2 °F - 66.2 °F 73% 29.90 in 10.0 mi Calm Calm - N/A   Unknown
1:15 AM 71.6 °F - 66.2 °F 83% 29.89 in 10.0 mi Calm Calm - N/A   Unknown
1:35 AM 71.6 °F - 66.2 °F 83% 29.89 in 10.0 mi Calm Calm - N/A   Unknown
1:55 AM 69.8 °F - 66.2 °F 88% 29.89 in 10.0 mi Calm Calm - N/A   Unknown
2:15 AM 69.8 °F - 64.4 °F 83% 29.89 in 10.0 mi Calm Calm - N/A   Unknown
2:35 AM 69.8 °F - 64.4 °F 83% 29.89 in 9.0 mi Calm Calm - N/A   Unknown
2:55 AM 69.8 °F - 64.4 °F 83% 29.89 in 10.0 mi Calm Calm - N/A   Unknown
3:15 AM 68.0 °F - 64.4 °F 88% 29.89 in 9.0 mi Calm Calm - N/A   Unknown
3:35 AM 66.2 °F - 64.4 °F 94% 29.89 in 9.0 mi Calm Calm - N/A   Unknown
3:55 AM 66.2 °F - 64.4 °F 94% 29.89 in 8.0 mi Calm Calm - N/A   Unknown
4:15 AM 66.2 °F - 64.4 °F 94% 29.90 in 8.0 mi Calm Calm - N/A   Unknown
4:35 AM 66.2 °F - 64.4 °F 94% 29.89 in 8.0 mi Calm Calm - N/A   Unknown
4:55 AM 66.2 °F - 64.4 °F 94% 29.90 in 8.0 mi Calm Calm - N/A   Unknown
5:15 AM 66.2 °F - 64.4 °F 94% 29.90 in 7.0 mi Calm Calm - N/A   Unknown
5:35 AM 64.4 °F - 64.4 °F 100% 29.90 in 7.0 mi Calm Calm - N/A   Unknown
5:55 AM 64.4 °F - 64.4 °F 100% 29.91 in 7.0 mi Calm Calm - N/A   Unknown
6:15 AM 64.4 °F - 62.6 °F 94% 29.92 in 7.0 mi Calm Calm - N/A   Unknown
6:35 AM 64.4 °F - 64.4 °F 100% 29.92 in 5.0 mi Calm Calm - N/A   Mist
6:55 AM 66.2 °F - 64.4 °F 94% 29.92 in 5.0 mi Calm Calm - N/A   Mist
7:15 AM 68.0 °F - 64.4 °F 88% 29.93 in 8.0 mi Calm Calm - N/A   Unknown
7:35 AM 69.8 °F - 64.4 °F 83% 29.93 in 7.0 mi Calm Calm - N/A   Unknown
7:55 AM 71.6 °F - 66.2 °F 83% 29.93 in 8.0 mi Calm Calm - N/A   Unknown
8:15 AM 75.2 °F - 66.2 °F 73% 29.93 in 9.0 mi Calm Calm - N/A   Unknown
8:35 AM 78.8 °F - 64.4 °F 61% 29.93 in 8.0 mi Calm Calm - N/A   Unknown
8:55 AM 80.6 °F 82.3 °F 64.4 °F 58% 29.94 in 9.0 mi SSE 5.8 mph - N/A   Unknown
9:15 AM 82.4 °F 83.9 °F 64.4 °F 54% 29.94 in 9.0 mi Calm Calm - N/A   Unknown
9:35 AM 82.4 °F 84.6 °F 66.2 °F 58% 29.94 in 8.0 mi SSW 5.8 mph - N/A   Unknown
10:15 AM 84.2 °F 86.6 °F 66.2 °F 55% 29.93 in 9.0 mi South 10.4 mph 17.3 mph N/A   Unknown
10:35 AM 84.2 °F 85.6 °F 64.4 °F 51% 29.93 in 9.0 mi South 11.5 mph - N/A   Unknown
10:55 AM 87.8 °F 88.5 °F 62.6 °F 43% 29.93 in 8.0 mi South 11.5 mph 23.0 mph N/A   Unknown
11:15 AM 87.8 °F 89.4 °F 64.4 °F 46% 29.93 in 9.0 mi SE 13.8 mph 20.7 mph N/A   Unknown
11:35 AM 87.8 °F 89.4 °F 64.4 °F 46% 29.92 in 9.0 mi SSW 11.5 mph 18.4 mph N/A   Unknown
11:55 AM 87.8 °F 89.4 °F 64.4 °F 46% 29.92 in 9.0 mi South 16.1 mph 24.2 mph N/A   Unknown
12:15 PM 87.8 °F 89.4 °F 64.4 °F 46% 29.91 in 9.0 mi South 10.4 mph 17.3 mph N/A   Unknown
12:35 PM 89.6 °F 91.1 °F 64.4 °F 43% 29.91 in 10.0 mi SSE 12.7 mph 19.6 mph N/A   Unknown
12:55 PM 89.6 °F 91.1 °F 64.4 °F 43% 29.90 in 9.0 mi SSW 11.5 mph 19.6 mph N/A   Unknown
1:15 PM 89.6 °F 91.1 °F 64.4 °F 43% 29.90 in 10.0 mi South 12.7 mph 18.4 mph N/A   Unknown
1:35 PM 91.4 °F 93.2 °F 64.4 °F 41% 29.89 in 9.0 mi SSE 9.2 mph 18.4 mph N/A   Unknown
1:55 PM 91.4 °F 93.2 °F 64.4 °F 41% 29.89 in 9.0 mi South 10.4 mph - N/A   Unknown
2:15 PM 91.4 °F 93.2 °F 64.4 °F 41% 29.89 in 10.0 mi SSE 11.5 mph 18.4 mph N/A   Unknown
2:35 PM 91.4 °F 93.2 °F 64.4 °F 41% 29.89 in 9.0 mi SSW 13.8 mph 19.6 mph N/A   Unknown
2:55 PM 91.4 °F 93.2 °F 64.4 °F 41% 29.89 in 9.0 mi South 9.2 mph 19.6 mph N/A   Unknown
3:15 PM 93.2 °F 94.9 °F 64.4 °F 38% 29.88 in 10.0 mi SSE 16.1 mph 23.0 mph N/A   Unknown
3:35 PM 91.4 °F 93.2 °F 64.4 °F 41% 29.88 in 9.0 mi SSE 10.4 mph 16.1 mph N/A   Unknown
3:55 PM 91.4 °F 92.1 °F 62.6 °F 38% 29.87 in 10.0 mi SSE 12.7 mph 18.4 mph N/A   Unknown
4:15 PM 93.2 °F 94.1 °F 62.6 °F 36% 29.87 in 10.0 mi SSE 13.8 mph 18.4 mph N/A   Unknown
4:35 PM 91.4 °F 93.2 °F 64.4 °F 41% 29.87 in 9.0 mi SE 10.4 mph 19.6 mph N/A   Unknown
4:55 PM 91.4 °F 93.2 °F 64.4 °F 41% 29.87 in 9.0 mi SE 12.7 mph 17.3 mph N/A   Unknown
5:15 PM 91.4 °F 93.2 °F 64.4 °F 41% 29.87 in 8.0 mi SE 5.8 mph - N/A   Unknown
5:35 PM 91.4 °F 93.2 °F 64.4 °F 41% 29.87 in 10.0 mi SSE 11.5 mph 18.4 mph N/A   Unknown
5:55 PM 91.4 °F 93.2 °F 64.4 °F 41% 29.87 in 9.0 mi SE 12.7 mph 17.3 mph N/A   Unknown
6:15 PM 91.4 °F 93.2 °F 64.4 °F 41% 29.87 in 9.0 mi SSE 10.4 mph 16.1 mph N/A   Unknown
6:35 PM 89.6 °F 91.1 °F 64.4 °F 43% 29.87 in 9.0 mi South 3.5 mph 18.4 mph N/A   Unknown
6:55 PM 89.6 °F 92.2 °F 66.2 °F 46% 29.87 in 9.0 mi Calm Calm - N/A   Unknown
7:15 PM 89.6 °F 92.2 °F 66.2 °F 46% 29.87 in 9.0 mi SSE 10.4 mph - N/A   Unknown
7:35 PM 87.8 °F 90.4 °F 66.2 °F 49% 29.87 in 10.0 mi SSE 10.4 mph 17.3 mph N/A   Unknown
7:55 PM 87.8 °F 90.4 °F 66.2 °F 49% 29.87 in 9.0 mi SE 9.2 mph - N/A   Unknown
8:15 PM 86.0 °F 89.4 °F 68.0 °F 55% 29.88 in 9.0 mi SSE 9.2 mph 17.3 mph N/A   Unknown
8:35 PM 86.0 °F 90.4 °F 69.8 °F 58% 29.88 in 9.0 mi SE 9.2 mph - N/A   Unknown
8:55 PM 84.2 °F 87.3 °F 68.0 °F 58% 29.89 in 10.0 mi SSE 6.9 mph - N/A   Unknown
9:15 PM 84.2 °F 88.4 °F 69.8 °F 62% 29.89 in 10.0 mi SE 5.8 mph - N/A   Unknown
9:35 PM 84.2 °F 88.4 °F 69.8 °F 62% 29.90 in 10.0 mi SSE 6.9 mph - N/A   Unknown
9:55 PM 82.4 °F 86.3 °F 69.8 °F 66% 29.91 in 10.0 mi SE 4.6 mph - N/A   Unknown
10:15 PM 82.4 °F 86.3 °F 69.8 °F 66% 29.91 in 10.0 mi SSE 3.5 mph - N/A   Unknown
10:35 PM 82.4 °F 86.3 °F 69.8 °F 66% 29.91 in 10.0 mi SE 6.9 mph - N/A   Unknown
10:55 PM 82.4 °F 86.3 °F 69.8 °F 66% 29.92 in 10.0 mi SSE 8.1 mph - N/A   Unknown
11:35 PM 80.6 °F 83.9 °F 69.8 °F 70% 29.93 in 10.0 mi Calm Calm - N/A   Unknown
11:55 PM 80.6 °F 83.9 °F 69.8 °F 70% 29.93 in 10.0 mi South 5.8 mph - N/A   Unknown